Regional Weather Roundup
Issued by NWS Green Bay, WI

Home | Current Version | Previous Version | Text Only | Print | Product List | Glossary On
Versions: 1 2 3 4 5 6 7 8 9 10 11 12 13 14 15 16 17 18 19 20 21 22 23 24 25 26 27 28 29 30 31 32 33 34 35 36 37 38 39 40 41 42 43 44 45 46 47 48 49 50
000
ASUS43 KGRB 281111
RWRGRB

NORTH-CENTRAL AND NORTHEAST WISCONSIN REGIONAL WEATHER ROUNDUP
NATIONAL WEATHER SERVICE GREEN BAY WI
600 AM CDT SUN MAY 28 2017

WIZ005-009-010>012-018-019-281200-
NORTH CENTRAL WISCONSIN

CITY           SKY/WX    TMP DP  RH WIND       PRES   REMARKS
IRONWOOD       LGT RAIN  54  52  93 SE3       29.74F
MANITOWISH WTR RAIN      53  53 100 W6        29.75S
ARBOR VITAE    LGT RAIN  55  52  90 SW5       29.76S
EAGLE RIVER    RAIN      52  51  97 S3        29.76R
LAND O LAKES   CLOUDY    52  51  97 W3        29.77R
RHINELANDER    LGT RAIN  55  52  89 SW7       29.79R
PHILLIPS       LGT RAIN  52  51  97 CALM      29.76F
ANTIGO         CLOUDY    54  53  97 SW5       29.79S
TOMAHAWK       LGT RAIN  51  50  93 CALM      29.79R
MERRILL        DRIZZLE   54  53  97 W3        29.79S
$$

WIZ013-073-281200-
NORTHEAST WISCONSIN

CITY           SKY/WX    TMP DP  RH WIND       PRES   REMARKS
IRON MOUNTAIN  LGT RAIN  56  53  90 CALM      29.72F
MARINETTE      NOT AVBL
OCONTO         CLOUDY    57  54  88 W5        29.74F
$$

WIZ017-030-035>037-045-281200-
CENTRAL WISCONSIN

CITY           SKY/WX    TMP DP  RH WIND       PRES   REMARKS
MEDFORD        RAIN      53  49  86 CALM      29.77S
WAUSAU         CLOUDY    55  53  93 CALM      29.76F
MOSINEE        CLOUDY    55  55 100 CALM      29.78F
MARSHFIELD     LGT RAIN  55  52  89 CALM      29.77F
WISC RAPIDS    LGT RAIN  56  54  93 CALM      29.79F FOG
STEVENS POINT  LGT RAIN  54  54 100 CALM      29.78F
WAUPACA        DRIZZLE   59  58  95 W3        29.77F
SHAWANO        RAIN      58  56  91 CALM      29.76F
CLINTONVILLE   CLOUDY    57  55  94 W7        29.77S
WAUTOMA        LGT RAIN  57  55  93 NW3         N/A
$$

WIZ038-039-048-051-281200-
FOX VALLEY

CITY           SKY/WX    TMP DP  RH WIND       PRES   REMARKS
NWS GREEN BAY  CLOUDY    60  56  86 NW9       29.74F
APPLETON       CLOUDY    57  52  82 W8        29.75F
OSHKOSH        CLOUDY    60  53  77 W7        29.75F
FOND DU LAC    LGT RAIN  60  55  83 NW9       29.74F
$$

WIZ022-050-052-281200-
EAST CENTRAL WISCONSIN

CITY           SKY/WX    TMP DP  RH WIND       PRES   REMARKS
EPHRAIM        CLOUDY    55  55 100 S3        29.73S
WASHINGTON ISL CLOUDY    53  50  91 NE3       29.71F
STURGEON BAY   CLOUDY    58  55  90 W5        29.74F
MANITOWOC      CLOUDY    60  55  83 CALM      29.73F
SHEBOYGAN      CLOUDY    59  57  93 NW3       29.73F
$$

LMZ563-521-522-541>543-281200-
LAKESHORE

STATION/POSITION TIME  TEMP    WIND        PRES    VSBY  WAVE
                       AIR SEA DIR/SP/G                  HT/PER
                 (UTC) (F)     (DEG/KT/KT) (MB)    (MI)  (FT/S)
SHEBOYGAN LKSHOR 1100   55     170/  3/  4 1006.5F
KEWAUNEE LKSHORE 1048   60     270/  2/  3 1006.6F
NORTHPORT PIER   1040   53      CALM  /  4 1006.4F
N MID LAKE BUOY  1050   45 42  230/  4/  4 1007.6F         1
SISTER BAY LKSHO 1036   55     110/  8/ 11   N/A
CHAMBERS ISLAND  1040   56     280/  2/  5 1006.4S
MENOMINEE LKSHOR 1048          190/  4/  5 1006.2F
$$




USA.gov is the U.S. government's official web portal to all federal, state and local government web resources and services.